Flag for Belarus Weather past 2 weeks in Minsk, Belarus

Now
52 °F

Partly sunny.


Feels Like: 48 °F
Forecast: 45 / 67 °F
Wind: 10 mph from Northwest

Location: Loshitsa / Minsk International 1

Current Time: May 28, 2015 at 11:31:32 AM

Latest Report: May 28, 2015 at 10:30 AM


Visibility: N/A

Pressure: 29.83 "Hg

Humidity: 82%

Dew point: 46 °F

Location of MinskLocation

Historic Weather in Minsk — Graph

°F

Minsk temperature yesterday

Maximum temperature yesterday: 68 °F (at 1:00 PM)
Minimum temperature yesterday: 52 °F (at 7:00 PM)
Average temperature yesterday: 61 °F

Past Weeks' High & Low Weather Summary

 TemperatureHumidityPressure
High79 °F (May 20, 2:00 PM)100% (May 22, 7:00 AM)30.18 "Hg (May 22, 7:00 AM)
Low41 °F (May 16, 7:30 AM)39% (May 20, 4:00 PM)29.62 "Hg (May 27, 8:00 AM)
Average58 °F69%29.89 "Hg
* Reported May 13 10:00 AM — May 28 10:30 AM, Minsk, Weather by CustomWeather, © 2015

Note: Actual official high and low records may vary slightly from our data, if they occured in-between our weather recording intervals... More about our weather records

Advertising

Minsk weather history for previous 24 hours

 ConditionsComfort  
Time TempWeatherWind HumidityBarometerVisibility
10:30 AM
Thu, May 28
52 °FPartly sunny.10 mph82%29.83 "HgN/A
10:00 AM52 °FPartly sunny.13 mph82%29.83 "HgN/A
9:30 AM52 °FMostly cloudy.13 mph82%29.80 "HgN/A
9:00 AM52 °FMostly cloudy.13 mph82%29.80 "HgN/A
8:30 AM50 °FMostly cloudy.13 mph88%29.80 "HgN/A
8:00 AM50 °FMostly cloudy.10 mph88%29.80 "HgN/A
7:30 AM50 °FOvercast.10 mph88%29.80 "HgN/A
8:30 PM
Wed, May 27
52 °FOvercast.17 mph94%29.71 "HgN/A
8:00 PM52 °FOvercast.15 mph94%29.71 "HgN/A
7:30 PM52 °FOvercast.17 mph94%29.71 "HgN/A
7:00 PM52 °FOvercast.17 mph94%29.71 "HgN/A
6:30 PM55 °FOvercast.17 mph88%29.68 "HgN/A
6:00 PM55 °FOvercast.17 mph88%29.68 "HgN/A
5:30 PM59 °FLow clouds.15 mph88%29.68 "HgN/A
5:00 PM59 °FLow clouds.15 mph88%29.68 "HgN/A
4:30 PM61 °FLow clouds.13 mph88%29.65 "HgN/A
3:30 PM68 °FMostly cloudy.10 mph88%29.65 "HgN/A
3:00 PM68 °FMostly cloudy.10 mph88%29.65 "HgN/A
2:30 PM68 °FMostly cloudy.10 mph88%29.65 "HgN/A
2:00 PM68 °FMostly cloudy.8 mph88%29.65 "HgN/A
1:30 PM68 °FMostly cloudy.1 mph83%29.62 "HgN/A
1:00 PM68 °FMostly cloudy.1 mph83%29.62 "HgN/A
12:30 PM66 °FPartly sunny.3 mph83%29.62 "HgN/A
12:00 PM66 °FPartly sunny.3 mph83%29.62 "HgN/A
11:30 AM66 °FPartly sunny.6 mph83%29.62 "HgN/A
11:00 AM66 °FPartly sunny.10 mph83%29.62 "HgN/A
Weather by CustomWeather, © 2015

See weather overviewHow to use our weather pages